Terminal Aerodrome Forecast
Issued by NWS

Home | Current Version | Previous Version | Graphics & Text | Print | Product List | Glossary On
Versions: 1 2 3 4 5 6 7 8 9 10 11 12 13 14 15 16 17 18 19 20 21 22 23 24 25
000
FTUS42 KMHX 111200 AAA
TAFPGV
TAF AMD
KPGV 111236Z 1113/1212 VRB03KT 3SM BR OVC005
      TEMPO 1113/1115 BKN010
     FM111600 VRB03KT P6SM VCSH SCT020 BKN035
     FM111800 VRB05KT P6SM VCTS SCT020 BKN040CB
     FM120000 15004KT P6SM SCT035
      AMD LTD TO CLD VIS AND WIND=

USA.gov is the U.S. government's official web portal to all federal, state and local government web resources and services.